Location: Beetenbrück
(52.8113°N, 9.5946°E)
Time: 21:54:19
(UTC+00:00)

Cosmos 1674 Rocket - Pass Details

Date: 14 April 2026
Orbit: 596 x 622 km, 82.5° (Epoch: 12 May)

Event Time Altitude Azimuth Distance (km) Brightness Sun altitude
Rises 20:17:45 0° 350° (N) 2,857 7.9 -16.3°
Reaches altitude 10° 20:19:58 10° 352° (N) 1,952 6.9 -16.5°
Maximum altitude 20:24:17 74° 78° (ENE) 630 3.4 -17.0°
Enters shadow 20:26:11 33° 157° (SSE) 1,032 4.2 -17.2°
